User: anonymous   Login
Location: Bremen
(53.0793°N, 8.8017°E)
Time: 02:40:56
(UTC+02:00)
Language:

ISS - Orbit

View from above orbital plane
View from above orbital plane
View from above satellite
View from above satellite

Ground track
Ground track

The orbit data is extracted from the following two-line orbital elements,

1 25544U 98067A   24144.72218948  .00022698  00000-0  37989-3 0  9992
2 25544  51.6389  76.5840 0003209 200.4515 237.4029 15.51775579454759
Epoch (UTC): 23 May 2024 17:19:57
Eccentricity: 0.0003209
inclination: 51.6389°
perigee height: 409 km
apogee height: 414 km
right ascension of ascending node: 76.5840°
argument of perigee: 200.4515°
revolutions per day: 15.51775579
mean anomaly at epoch: 237.4029°
orbit number at epoch: 45475

The dashed part of the orbit path shows where the satellite is in the earth's shadow,  

DLR